Location: Castillon
(43.0896°N, 0.2156°E)
Time: 17:17:07
(UTC+00:00)

FENGYUN 1C DEB - Pass Details

Date: 06 February 2022
Orbit: 828 x 915 km, 99.0° (Epoch: 25 May)

Event Time Altitude Azimuth Distance (km) Brightness Sun altitude
Exits shadow 19:51:32 10° 8° (N) 2,420 ? -28.3°
Drops below altitude 10° 19:51:38 10° 8° (N) 2,453 ? -28.3°
Sets 19:54:17 0° 357° (N) 3,385 ? -28.8°
